Snav Lazio — IBUH — position and weather

sailwx.info

Track history (hours):
 
Tides and Currents Weather Stations Pressure Air Temp Water Temp Dewpoint Dewpoint Depression Visibility Wind Speed Wind Dir Waves Ship Positions

Snav Lazio

Last reported at 2014-Oct-30 08:18 UTC. Time now 2014-Oct-30 12:16 UTC.
Position N 38°08' E 013°22'.

Length 162 m; draft 6 m.

Type: Passenger vessel. MMSI: 247163100.

Date/timePositionNaut miles runAvg speedWind from/ knotsBaromVisibWave heightAir tempDewpointWater temp
2014-Oct-30 08:18N 38°08' E 013°22'0 0.0
2014-Oct-30 07:34N 38°08' E 013°22'0 0.0
2014-Oct-30 06:33N 38°08' E 013°22'0 0.0
2014-Oct-30 05:33N 38°08' E 013°22'6 6.2
2014-Oct-30 04:33N 38°13' E 013°26'1818.3
2014-Oct-30 03:33N 38°31' E 013°31'1817.4
2014-Oct-30 02:33N 38°48' E 013°36'22 0.7
2014-Oct-28 20:33N 38°27' E 013°31'1717.3
2014-Oct-28 19:33N 38°10' E 013°26'4 3.9
2014-Oct-28 18:31N 38°08' E 013°22'0 0.0
2014-Oct-28 17:31N 38°08' E 013°22'0 0.0
2014-Oct-28 16:31N 38°08' E 013°22'0 0.0
2014-Oct-28 15:31N 38°08' E 013°22'0 0.0
2014-Oct-28 14:31N 38°08' E 013°22'0 0.0
2014-Oct-28 13:31N 38°08' E 013°22'0 0.0
2014-Oct-28 12:31N 38°08' E 013°22'0 0.0
2014-Oct-28 11:31N 38°08' E 013°22'0 0.0
2014-Oct-28 10:31N 38°08' E 013°22'0 0.0
2014-Oct-28 09:31N 38°08' E 013°22'0 0.0
2014-Oct-28 08:31N 38°08' E 013°22'0 0.0
2014-Oct-28 07:31N 38°08' E 013°22'0 0.0
2014-Oct-28 06:31N 38°08' E 013°22'0 0.0
2014-Oct-28 05:31N 38°08' E 013°22'8 8.1
2014-Oct-28 04:34N 38°15' E 013°27'1818.1
2014-Oct-28 03:34N 38°33' E 013°32'1818.1
2014-Oct-28 02:33N 38°50' E 013°37'13 0.4
2014-Oct-26 21:23N 38°37' E 013°36'1517.7
2014-Oct-26 20:33N 38°22' E 013°35'1515.4
2014-Oct-26 19:33N 38°09' E 013°26'3 2.9
2014-Oct-26 18:31N 38°08' E 013°22'0 0.0
2014-Oct-26 17:31N 38°08' E 013°22'0 0.0
2014-Oct-26 16:31N 38°08' E 013°22'0 0.0
2014-Oct-26 15:31N 38°08' E 013°22'0 0.0
2014-Oct-26 14:31N 38°08' E 013°22'0 0.0
2014-Oct-26 13:31N 38°08' E 013°22'0 0.0
2014-Oct-26 12:31N 38°08' E 013°22'0 0.0
2014-Oct-26 11:31N 38°08' E 013°22'0 0.0
2014-Oct-26 10:31N 38°08' E 013°22'0 0.0
2014-Oct-26 09:31N 38°08' E 013°22'0 0.0
2014-Oct-26 08:28N 38°08' E 013°22'0 0.0
2014-Oct-26 07:31N 38°08' E 013°22'0 0.0
2014-Oct-26 06:31N 38°08' E 013°22'0 0.0
2014-Oct-26 05:31N 38°08' E 013°22'4 4.5
2014-Oct-26 04:33N 38°11' E 013°25'1414.2
2014-Oct-26 03:33N 38°25' E 013°29'1514.9
2014-Oct-26 02:33N 38°40' E 013°33'4 0.1
2014-Oct-24 20:06N 38°36' E 013°33'917.2
2014-Oct-24 19:33N 38°26' E 013°30'1717.0
2014-Oct-24 18:33N 38°10' E 013°26'4 3.4
2014-Oct-24 17:31N 38°08' E 013°22'0 0.0
2014-Oct-24 16:31N 38°08' E 013°22'0 0.0
2014-Oct-24 15:31N 38°08' E 013°22'0 0.0
2014-Oct-24 14:31N 38°08' E 013°22'0 0.0
2014-Oct-24 13:31N 38°08' E 013°22'0 0.0
2014-Oct-24 12:31N 38°08' E 013°22'0 0.0
2014-Oct-24 11:31N 38°08' E 013°22'0 0.0
2014-Oct-24 10:31N 38°08' E 013°22'0 0.0
2014-Oct-24 09:31N 38°08' E 013°22'0 0.0
2014-Oct-24 08:31N 38°08' E 013°22'0 0.0
2014-Oct-24 07:31N 38°08' E 013°22'0 0.0
2014-Oct-24 06:31N 38°08' E 013°22'0 0.0
2014-Oct-24 05:33N 38°08' E 013°22'0 0.3
2014-Oct-24 04:33N 38°08' E 013°22'1212.0
2014-Oct-24 03:33N 38°19' E 013°29'1717.4
2014-Oct-24 02:33N 38°36' E 013°33'1 0.0
2014-Oct-22 20:33N 38°35' E 013°33'1616.1
2014-Oct-22 19:33N 38°19' E 013°29'1312.6
2014-Oct-22 18:33N 38°08' E 013°22'0 0.3
2014-Oct-22 17:32N 38°08' E 013°22'0 0.0
2014-Oct-22 16:32N 38°08' E 013°22'0 0.0
2014-Oct-22 15:32N 38°08' E 013°22'0 0.0
2014-Oct-22 14:32N 38°08' E 013°22'0 0.0
2014-Oct-22 13:32N 38°08' E 013°22'0 0.0
2014-Oct-22 12:32N 38°08' E 013°22'0 0.0
2014-Oct-22 11:32N 38°08' E 013°22'0 0.0
2014-Oct-22 10:32N 38°08' E 013°22'0 0.0
2014-Oct-22 09:32N 38°08' E 013°22'0 0.0
2014-Oct-22 08:32N 38°08' E 013°22'0 0.0
2014-Oct-22 07:32N 38°08' E 013°22'0 0.0
2014-Oct-22 06:32N 38°08' E 013°22'0 0.0
2014-Oct-22 05:32N 38°08' E 013°22'0 0.0
2014-Oct-22 04:33N 38°08' E 013°22'1110.7
2014-Oct-22 03:33N 38°17' E 013°28'1717.5
2014-Oct-22 02:33N 38°34' E 013°34'5917.9
2014-Oct-21 23:16N 39°32' E 013°51'1316.7
2014-Oct-21 22:28N 39°45' E 013°54'82 3.0
2014-Oct-20 19:33N 38°25' E 013°30'1717.0
2014-Oct-20 18:34N 38°09' E 013°25'3 2.6
2014-Oct-20 17:31N 38°08' E 013°22'0 0.0
2014-Oct-20 16:31N 38°08' E 013°22'0 0.0
2014-Oct-20 15:31N 38°08' E 013°22'0 0.0
2014-Oct-20 14:31N 38°08' E 013°22'0 0.0
2014-Oct-20 13:31N 38°08' E 013°22'0 0.0
2014-Oct-20 12:31N 38°08' E 013°22'0 0.0
2014-Oct-20 11:28N 38°08' E 013°22'0 0.0
2014-Oct-20 10:31N 38°08' E 013°22'0 0.0
2014-Oct-20 09:31N 38°08' E 013°22'0 0.0
2014-Oct-20 08:31N 38°08' E 013°22'  
Track history (hours):
 
Tides and Currents Weather Stations Pressure Air Temp Water Temp Dewpoint Dewpoint Depression Visibility Wind Speed Wind Dir Waves Ship Positions

Snav Lazio

Last reported at 2014-Oct-30 08:18 UTC. Time now 2014-Oct-30 12:16 UTC.
Position N 38°08' E 013°22'.

Length 162 m; draft 6 m.

Type: Passenger vessel. MMSI: 247163100.

Date/timePositionNaut miles runAvg speedWind from/ knotsBaromVisibWave heightAir tempDewpointWater temp
2014-Oct-30 08:18N 38°08' E 013°22'0 0.0
2014-Oct-30 07:34N 38°08' E 013°22'0 0.0
2014-Oct-30 06:33N 38°08' E 013°22'0 0.0
2014-Oct-30 05:33N 38°08' E 013°22'6 6.2
2014-Oct-30 04:33N 38°13' E 013°26'1818.3
2014-Oct-30 03:33N 38°31' E 013°31'1817.4
2014-Oct-30 02:33N 38°48' E 013°36'22 0.7
2014-Oct-28 20:33N 38°27' E 013°31'1717.3
2014-Oct-28 19:33N 38°10' E 013°26'4 3.9
2014-Oct-28 18:31N 38°08' E 013°22'0 0.0
2014-Oct-28 17:31N 38°08' E 013°22'0 0.0
2014-Oct-28 16:31N 38°08' E 013°22'0 0.0
2014-Oct-28 15:31N 38°08' E 013°22'0 0.0
2014-Oct-28 14:31N 38°08' E 013°22'0 0.0
2014-Oct-28 13:31N 38°08' E 013°22'0 0.0
2014-Oct-28 12:31N 38°08' E 013°22'0 0.0
2014-Oct-28 11:31N 38°08' E 013°22'0 0.0
2014-Oct-28 10:31N 38°08' E 013°22'0 0.0
2014-Oct-28 09:31N 38°08' E 013°22'0 0.0
2014-Oct-28 08:31N 38°08' E 013°22'0 0.0
2014-Oct-28 07:31N 38°08' E 013°22'0 0.0
2014-Oct-28 06:31N 38°08' E 013°22'0 0.0
2014-Oct-28 05:31N 38°08' E 013°22'8 8.1
2014-Oct-28 04:34N 38°15' E 013°27'1818.1
2014-Oct-28 03:34N 38°33' E 013°32'1818.1
2014-Oct-28 02:33N 38°50' E 013°37'13 0.4
2014-Oct-26 21:23N 38°37' E 013°36'1517.7
2014-Oct-26 20:33N 38°22' E 013°35'1515.4
2014-Oct-26 19:33N 38°09' E 013°26'3 2.9
2014-Oct-26 18:31N 38°08' E 013°22'0 0.0
2014-Oct-26 17:31N 38°08' E 013°22'0 0.0
2014-Oct-26 16:31N 38°08' E 013°22'0 0.0
2014-Oct-26 15:31N 38°08' E 013°22'0 0.0
2014-Oct-26 14:31N 38°08' E 013°22'0 0.0
2014-Oct-26 13:31N 38°08' E 013°22'0 0.0
2014-Oct-26 12:31N 38°08' E 013°22'0 0.0
2014-Oct-26 11:31N 38°08' E 013°22'0 0.0
2014-Oct-26 10:31N 38°08' E 013°22'0 0.0
2014-Oct-26 09:31N 38°08' E 013°22'0 0.0
2014-Oct-26 08:28N 38°08' E 013°22'0 0.0
2014-Oct-26 07:31N 38°08' E 013°22'0 0.0
2014-Oct-26 06:31N 38°08' E 013°22'0 0.0
2014-Oct-26 05:31N 38°08' E 013°22'4 4.5
2014-Oct-26 04:33N 38°11' E 013°25'1414.2
2014-Oct-26 03:33N 38°25' E 013°29'1514.9
2014-Oct-26 02:33N 38°40' E 013°33'4 0.1
2014-Oct-24 20:06N 38°36' E 013°33'917.2
2014-Oct-24 19:33N 38°26' E 013°30'1717.0
2014-Oct-24 18:33N 38°10' E 013°26'4 3.4
2014-Oct-24 17:31N 38°08' E 013°22'0 0.0
2014-Oct-24 16:31N 38°08' E 013°22'0 0.0
2014-Oct-24 15:31N 38°08' E 013°22'0 0.0
2014-Oct-24 14:31N 38°08' E 013°22'0 0.0
2014-Oct-24 13:31N 38°08' E 013°22'0 0.0
2014-Oct-24 12:31N 38°08' E 013°22'0 0.0
2014-Oct-24 11:31N 38°08' E 013°22'0 0.0
2014-Oct-24 10:31N 38°08' E 013°22'0 0.0
2014-Oct-24 09:31N 38°08' E 013°22'0 0.0
2014-Oct-24 08:31N 38°08' E 013°22'0 0.0
2014-Oct-24 07:31N 38°08' E 013°22'0 0.0
2014-Oct-24 06:31N 38°08' E 013°22'0 0.0
2014-Oct-24 05:33N 38°08' E 013°22'0 0.3
2014-Oct-24 04:33N 38°08' E 013°22'1212.0
2014-Oct-24 03:33N 38°19' E 013°29'1717.4
2014-Oct-24 02:33N 38°36' E 013°33'1 0.0
2014-Oct-22 20:33N 38°35' E 013°33'1616.1
2014-Oct-22 19:33N 38°19' E 013°29'1312.6
2014-Oct-22 18:33N 38°08' E 013°22'0 0.3
2014-Oct-22 17:32N 38°08' E 013°22'0 0.0
2014-Oct-22 16:32N 38°08' E 013°22'0 0.0
2014-Oct-22 15:32N 38°08' E 013°22'0 0.0
2014-Oct-22 14:32N 38°08' E 013°22'0 0.0
2014-Oct-22 13:32N 38°08' E 013°22'0 0.0
2014-Oct-22 12:32N 38°08' E 013°22'0 0.0
2014-Oct-22 11:32N 38°08' E 013°22'0 0.0
2014-Oct-22 10:32N 38°08' E 013°22'0 0.0
2014-Oct-22 09:32N 38°08' E 013°22'0 0.0
2014-Oct-22 08:32N 38°08' E 013°22'0 0.0
2014-Oct-22 07:32N 38°08' E 013°22'0 0.0
2014-Oct-22 06:32N 38°08' E 013°22'0 0.0
2014-Oct-22 05:32N 38°08' E 013°22'0 0.0
2014-Oct-22 04:33N 38°08' E 013°22'1110.7
2014-Oct-22 03:33N 38°17' E 013°28'1717.5
2014-Oct-22 02:33N 38°34' E 013°34'5917.9
2014-Oct-21 23:16N 39°32' E 013°51'1316.7
2014-Oct-21 22:28N 39°45' E 013°54'82 3.0
2014-Oct-20 19:33N 38°25' E 013°30'1717.0
2014-Oct-20 18:34N 38°09' E 013°25'3 2.6
2014-Oct-20 17:31N 38°08' E 013°22'0 0.0
2014-Oct-20 16:31N 38°08' E 013°22'0 0.0
2014-Oct-20 15:31N 38°08' E 013°22'0 0.0
2014-Oct-20 14:31N 38°08' E 013°22'0 0.0
2014-Oct-20 13:31N 38°08' E 013°22'0 0.0
2014-Oct-20 12:31N 38°08' E 013°22'0 0.0
2014-Oct-20 11:28N 38°08' E 013°22'0 0.0
2014-Oct-20 10:31N 38°08' E 013°22'0 0.0
2014-Oct-20 09:31N 38°08' E 013°22'0 0.0
2014-Oct-20 08:31N 38°08' E 013°22'  

Dump ship's entire track history